Zurück zum Katalog

STARLINK-3698

AktivKommunikationVLEO
NORAD 52108·PAYLOAD·🇺🇸 United States

Gestartet Mar 19, 2022 von Cape Canaveral Space Force Station

Loading…

Nächste Überflüge (nächste 24 Stunden)

TLE

AktuellSource: CelesTrak SupGP

Epoche: Sep 14, 2026, 13:38 UTC

1 52108C 22029W   26257.56854167  .00023432  00000+0  71108-3 0  2575
2 52108  53.1584 297.4830 0001263  74.4756 273.3161 15.33535023    16

Verfolge STARLINK-3698 in Echtzeit mit AllMySat

Download on the App Store